Weather History for Olean, NY

Change the Weather History Date:

Friday, March 8, 2013

  Actual Average (KBFD) Record (KBFD)
Temperature  
Mean Temperature 30 °F 29 °F  
Max Temperature 33 °F 38 °F 74 °F (2000)
Min Temperature 26 °F 19 °F -15 °F (1999)
Degree Days  
Heating Degree Days 36 31  
Month to date heating degree days 255  
Since 1 July heating degree days 5825  
Cooling Degree Days 0 0  
Month to date cooling degree days 0  
Year to date cooling degree days 0  
Moisture  
Dew Point 22 °F    
Average Humidity 75    
Maximum Humidity 100    
Minimum Humidity 56    
Precipitation  
Precipitation 0.00 in 0.10 in 1.12 in (2009)
Month to date precipitation 0.79  
Year to date precipitation 6.43  
Sea Level Pressure  
Sea Level Pressure 30.25 in    
Wind  
Wind Speed 8 mph (NNW)    
Max Wind Speed 14 mph    
Max Gust Speed 22 mph    
Visibility 10 miles    
Events Snow    
T = Trace of Precipitation, MM = Missing Value Source: NWS Daily Summary

Daily Weather History Graph

Daily Weather History Graph

Search for Another Location

Airport:

Trip Planner

Search our weather history database for the weather conditions in past years. The results will help you decide how hot, cold, wet, or windy it might be!

Date:

Astronomy

Mar. 08, 2013 Rise Set
Actual Time 6:36 AM EST 6:12 PM EST
Civil Twilight 6:08 AM EST 6:40 PM EST
Nautical Twilight 5:36 AM EST 7:12 PM EST
Astronomical Twilight 5:03 AM EST 7:45 PM EST
Moon 4:23 AM EST (3/8) 3:02 PM EST (3/8)
Length of Visible Light 12h 31m
Length of Day
11h 35m
Waning Crescent, 12% of the Moon is Illuminated
Mar 8
Waning Crescent
Mar 11
New
Mar 19
First Quarter
Mar 27
Full
Apr 3
Last Quarter

Hourly Weather History & Observations

Time (EST) Temp. Windchill Dew Point Humidity Pressure Visibility Wind Dir Wind Speed Gust Speed Precip Events Conditions
12:15 AM 26.6 °F 20.0 °F 26.6 °F 100% 30.15 in 4.0 mi North 5.8 mph - N/A Snow Light Snow
12:35 AM 26.6 °F 18.2 °F 26.6 °F 100% 30.15 in 7.0 mi NNW 8.1 mph - N/A Snow Light Snow
12:55 AM 26.6 °F 18.2 °F 24.8 °F 93% 30.16 in 10.0 mi NNW 8.1 mph - N/A   Overcast
1:15 AM 26.6 °F 17.5 °F 24.8 °F 93% 30.15 in 10.0 mi NNW 9.2 mph - N/A   Overcast
1:35 AM 26.6 °F 19.1 °F 24.8 °F 93% 30.16 in 10.0 mi NNW 6.9 mph - N/A   Overcast
1:55 AM 26.6 °F 18.2 °F 24.8 °F 93% 30.16 in 10.0 mi NNW 8.1 mph - N/A   Overcast
2:15 AM 26.6 °F 19.1 °F 24.8 °F 93% 30.16 in 10.0 mi NNW 6.9 mph - N/A   Overcast
2:35 AM 26.6 °F 17.5 °F 24.8 °F 93% 30.16 in 10.0 mi NNW 9.2 mph - N/A   Overcast
2:55 AM 26.6 °F 19.1 °F 24.8 °F 93% 30.16 in 10.0 mi North 6.9 mph - N/A Snow Light Snow
3:15 AM 26.6 °F 18.2 °F 24.8 °F 93% 30.16 in 5.0 mi NNW 8.1 mph - N/A Snow Light Snow
3:35 AM 26.6 °F 17.5 °F 23.0 °F 86% 30.17 in 10.0 mi North 9.2 mph 16.1 mph N/A   Overcast
3:55 AM 26.6 °F 16.2 °F 23.0 °F 86% 30.17 in 10.0 mi North 11.5 mph 16.1 mph N/A   Overcast
4:15 AM 26.6 °F 17.5 °F 23.0 °F 86% 30.18 in 10.0 mi North 9.2 mph - N/A   Overcast
4:35 AM 26.6 °F 16.2 °F 23.0 °F 86% 30.18 in 10.0 mi North 11.5 mph - N/A   Overcast
4:55 AM 26.6 °F 18.2 °F 23.0 °F 86% 30.19 in 10.0 mi NNW 8.1 mph 18.4 mph N/A   Overcast
5:15 AM 26.6 °F 17.5 °F 23.0 °F 86% 30.20 in 10.0 mi North 9.2 mph 16.1 mph N/A   Overcast
5:35 AM 26.6 °F 18.2 °F 23.0 °F 86% 30.21 in 10.0 mi North 8.1 mph 16.1 mph N/A   Overcast
5:55 AM 26.6 °F 18.2 °F 23.0 °F 86% 30.21 in 10.0 mi North 8.1 mph 16.1 mph N/A   Overcast
6:15 AM 26.6 °F 19.1 °F 23.0 °F 86% 30.22 in 10.0 mi North 6.9 mph 18.4 mph N/A   Overcast
6:35 AM 26.6 °F 19.1 °F 23.0 °F 86% 30.23 in 10.0 mi North 6.9 mph - N/A   Overcast
6:55 AM 26.6 °F 19.1 °F 23.0 °F 86% 30.23 in 10.0 mi NNW 6.9 mph - N/A   Overcast
7:15 AM 26.6 °F 17.5 °F 23.0 °F 86% 30.24 in 10.0 mi North 9.2 mph - N/A   Overcast
7:35 AM 26.6 °F 18.2 °F 23.0 °F 86% 30.24 in 10.0 mi North 8.1 mph - N/A   Overcast
7:55 AM 26.6 °F 19.1 °F 23.0 °F 86% 30.25 in 4.0 mi NNW 6.9 mph - N/A Snow Light Snow
8:15 AM 28.4 °F 21.2 °F 23.0 °F 80% 30.25 in 10.0 mi NNW 6.9 mph - N/A   Overcast
8:35 AM 28.4 °F 20.4 °F 21.2 °F 74% 30.26 in 10.0 mi North 8.1 mph 16.1 mph N/A   Overcast
8:55 AM 28.4 °F 20.4 °F 21.2 °F 74% 30.26 in 10.0 mi NW 8.1 mph 17.3 mph N/A   Overcast
9:15 AM 28.4 °F 18.5 °F 21.2 °F 74% 30.26 in 10.0 mi NNE 11.5 mph - N/A   Overcast
9:35 AM 28.4 °F 20.4 °F 19.4 °F 69% 30.27 in 10.0 mi North 8.1 mph - N/A   Overcast
9:55 AM 28.4 °F 20.4 °F 19.4 °F 69% 30.27 in 10.0 mi North 8.1 mph - N/A   Overcast
10:15 AM 28.4 °F 18.5 °F 19.4 °F 69% 30.27 in 10.0 mi NNW 11.5 mph 18.4 mph N/A   Overcast
10:35 AM 28.4 °F 19.1 °F 19.4 °F 69% 30.28 in 10.0 mi North 10.4 mph 16.1 mph N/A   Overcast
10:55 AM 30.2 °F 21.3 °F 19.4 °F 64% 30.28 in 10.0 mi NNW 10.4 mph 16.1 mph N/A   Overcast
11:15 AM 30.2 °F 21.3 °F 17.6 °F 60% 30.28 in 10.0 mi NNW 10.4 mph 19.6 mph N/A   Overcast
11:35 AM 30.2 °F 22.6 °F 19.4 °F 64% 30.28 in 10.0 mi North 8.1 mph - N/A   Overcast
11:55 AM 32.0 °F 24.2 °F 19.4 °F 60% 30.28 in 10.0 mi North 9.2 mph 17.3 mph N/A   Overcast
12:15 PM 32.0 °F 22.5 °F 19.4 °F 60% 30.28 in 10.0 mi North 12.7 mph 20.7 mph N/A   Overcast
12:35 PM 32.0 °F 23.0 °F 19.4 °F 60% 30.28 in 10.0 mi North 11.5 mph 19.6 mph N/A   Overcast
12:55 PM 32.0 °F 24.2 °F 19.4 °F 60% 30.27 in 10.0 mi North 9.2 mph 17.3 mph N/A   Scattered Clouds
1:15 PM 32.0 °F 22.5 °F 19.4 °F 60% 30.26 in 10.0 mi North 12.7 mph 21.9 mph N/A   Clear
1:35 PM 32.0 °F 22.5 °F 19.4 °F 60% 30.26 in 10.0 mi NNW 12.7 mph 18.4 mph N/A   Clear
1:55 PM 33.8 °F 25.3 °F 19.4 °F 56% 30.26 in 10.0 mi North 11.5 mph 17.3 mph N/A   Clear
2:15 PM 33.8 °F 24.3 °F 19.4 °F 56% 30.26 in 10.0 mi North 13.8 mph 18.4 mph N/A   Clear
2:35 PM 33.8 °F 25.3 °F 19.4 °F 56% 30.26 in 10.0 mi North 11.5 mph 17.3 mph N/A   Clear
2:55 PM 33.8 °F 27.7 °F 19.4 °F 56% 30.27 in 10.0 mi NNW 6.9 mph 18.4 mph N/A   Clear
3:15 PM 33.8 °F 25.8 °F 19.4 °F 56% 30.27 in 10.0 mi North 10.4 mph 16.1 mph N/A   Clear
3:35 PM 33.8 °F 27.0 °F 19.4 °F 56% 30.27 in 10.0 mi North 8.1 mph - N/A   Clear
3:55 PM 33.8 °F 26.4 °F 19.4 °F 56% 30.27 in 10.0 mi North 9.2 mph 16.1 mph N/A   Clear
4:15 PM 33.8 °F 25.8 °F 19.4 °F 56% 30.28 in 10.0 mi North 10.4 mph 16.1 mph N/A   Clear
4:35 PM 33.8 °F 25.8 °F 19.4 °F 56% 30.27 in 10.0 mi North 10.4 mph - N/A   Clear
4:55 PM 33.8 °F 27.0 °F 19.4 °F 56% 30.28 in 10.0 mi North 8.1 mph 16.1 mph N/A   Clear
5:15 PM 33.8 °F 26.4 °F 19.4 °F 56% 30.29 in 10.0 mi North 9.2 mph - N/A   Clear
5:35 PM 32.0 °F 24.8 °F 19.4 °F 60% 30.29 in 10.0 mi North 8.1 mph - N/A   Clear
5:55 PM 32.0 °F 24.8 °F 21.2 °F 64% 30.30 in 10.0 mi North 8.1 mph - N/A   Clear
6:15 PM 32.0 °F 26.4 °F 21.2 °F 64% 30.30 in 10.0 mi North 5.8 mph - N/A   Clear
6:35 PM 32.0 °F 27.5 °F 21.2 °F 64% 30.30 in 10.0 mi NNW 4.6 mph - N/A   Clear
6:55 PM 30.2 °F 25.4 °F 21.2 °F 69% 30.30 in 10.0 mi NNW 4.6 mph - N/A   Clear
7:15 PM 30.2 °F - 21.2 °F 69% 30.32 in 10.0 mi Calm Calm - N/A   Clear
7:35 PM 30.2 °F 25.4 °F 21.2 °F 69% 30.32 in 10.0 mi NNW 4.6 mph - N/A   Clear
7:55 PM 30.2 °F 25.4 °F 21.2 °F 69% 30.32 in 10.0 mi NW 4.6 mph - N/A   Clear
8:15 PM 30.2 °F 25.4 °F 21.2 °F 69% 30.32 in 10.0 mi NNW 4.6 mph - N/A   Clear
8:35 PM 28.4 °F 23.3 °F 21.2 °F 74% 30.32 in 10.0 mi NNW 4.6 mph - N/A   Clear
8:55 PM 28.4 °F 24.6 °F 21.2 °F 74% 30.32 in 10.0 mi NNW 3.5 mph - N/A   Clear
9:15 PM 28.4 °F 24.6 °F 23.0 °F 80% 30.32 in 10.0 mi NNW 3.5 mph - N/A   Clear
9:35 PM 28.4 °F - 23.0 °F 80% 30.32 in 10.0 mi Calm Calm - N/A   Clear
9:55 PM 28.4 °F 23.3 °F 21.2 °F 74% 30.32 in 10.0 mi NW 4.6 mph - N/A   Clear
10:15 PM 28.4 °F 23.3 °F 23.0 °F 80% 30.32 in 10.0 mi NW 4.6 mph - N/A   Clear
10:35 PM 26.6 °F 21.2 °F 23.0 °F 86% 30.32 in 10.0 mi NW 4.6 mph - N/A   Clear
10:55 PM 26.6 °F 21.2 °F 23.0 °F 86% 30.32 in 10.0 mi NW 4.6 mph - N/A   Clear
11:15 PM 26.6 °F 21.2 °F 23.0 °F 86% 30.31 in 10.0 mi NNW 4.6 mph - N/A   Clear
11:35 PM 26.6 °F 21.2 °F 23.0 °F 86% 30.30 in 10.0 mi NNW 4.6 mph - N/A   Clear
11:55 PM 26.6 °F 21.2 °F 23.0 °F 86% 30.30 in 10.0 mi NW 4.6 mph - N/A   Clear